IK0AOC Rome IT current weather conditions

sailwx.info

Wind from 173

Air temperature 21.7° C
Dewpoint 16.6° C

Last reported at 2019-Sep-16 21:04 UTC.
Time now 2019-Sep-16 22:13 UTC

Location: N 41°47' E 012°27'.
View on Google Maps.

See reports from other nearby stations

  
Tides and Currents Weather Stations Pressure Air Temp Water Temp Dewpoint Dewpoint Depression Visibility Wind Speed Wind Dir Waves Ship Positions
date/time (UTC)wind fromknots sea level pressurealtimeterstation pressurevisibilityair tempwater tempwave heightnotes
2019-Sep-16 21:04 173 21.7
2019-Sep-16 20:54 173 21.7
2019-Sep-16 20:40 173 21.7
2019-Sep-16 20:30 173 21.7
2019-Sep-16 20:24 173 21.7
2019-Sep-16 20:14 209 21.7
2019-Sep-16 19:59 269 22.2
2019-Sep-16 19:50 269 22.2
2019-Sep-16 19:44 269 22.2
2019-Sep-16 19:40 269 22.2
2019-Sep-16 19:34 269 22.2
2019-Sep-16 19:20 269 22.8
2019-Sep-16 19:10 269 23.3
2019-Sep-16 18:59 269 23.3
2019-Sep-16 18:50 269 23.9
2019-Sep-16 18:44 269 23.9
2019-Sep-16 18:40 269 0 gusting 6 23.9
2019-Sep-16 18:30 262 23.9
2019-Sep-16 18:14 276 23.9
2019-Sep-16 17:50 257 24.4
2019-Sep-16 17:40 267 24.4
2019-Sep-16 17:34 267 24.4
2019-Sep-16 17:30 249 1 gusting 7 24.4
2019-Sep-16 17:24 263 25.0
2019-Sep-16 17:14 269 4 gusting 10 25.0
2019-Sep-16 16:54 273 8 gusting 17 25.6
2019-Sep-16 16:40 287 10 gusting 17 25.6
2019-Sep-16 16:34 285 12 gusting 19 25.6
2019-Sep-16 16:30 330 5 gusting 15 26.1
2019-Sep-16 16:24 357 8 gusting 17 26.1
2019-Sep-16 16:20 277 11 gusting 17 26.1
2019-Sep-16 16:10 332 10 gusting 15 26.7
2019-Sep-16 16:04 280 8 gusting 17 27.2
2019-Sep-16 15:54 279 4 gusting 12 26.7
2019-Sep-16 15:50 261 6 gusting 14 26.7
2019-Sep-16 15:40 275 10 gusting 18 26.7
2019-Sep-16 15:34 261 5 gusting 19 27.2
2019-Sep-16 15:04 270 11 gusting 21 27.8
2019-Sep-16 14:54 288 12 gusting 22 27.8
2019-Sep-16 14:44 294 8 gusting 19 28.3
2019-Sep-16 14:40 265 6 gusting 18 28.3
2019-Sep-16 14:30 260 5 gusting 20 28.3
2019-Sep-16 14:20 284 11 gusting 20 28.3
2019-Sep-16 13:44 281 11 gusting 22 28.9
2019-Sep-16 13:40 250 2 gusting 22 28.9
2019-Sep-16 13:20 272 12 gusting 22 28.9
2019-Sep-16 13:14 265 9 gusting 19 28.9
2019-Sep-16 13:04 283 7 gusting 20 28.9
2019-Sep-16 13:00 280 5 gusting 17 28.9
2019-Sep-16 12:50 223 12 gusting 19 29.4
2019-Sep-16 12:24 227 11 gusting 21 28.3
2019-Sep-16 12:20 240 12 gusting 19 28.9
2019-Sep-16 12:04 243 13 gusting 21 28.9
2019-Sep-16 12:00 250 8 gusting 20 28.9
2019-Sep-16 11:54 253 10 gusting 20 28.9
2019-Sep-16 11:50 211 8 gusting 19 28.9
2019-Sep-16 11:44 241 11 gusting 19 28.3
2019-Sep-16 11:34 271 6 gusting 18 28.9
2019-Sep-16 11:24 233 8 gusting 14 28.9
2019-Sep-16 11:20 267 6 gusting 18 28.9
2019-Sep-16 11:00 241 9 gusting 19 28.3
2019-Sep-16 10:20 226 29.4
2019-Sep-16 10:14 261 3 gusting 6 29.4
2019-Sep-16 10:10 264 0 gusting 13 28.3
2019-Sep-16 09:44 239 28.9
2019-Sep-16 09:34 293 1 gusting 10 28.3
2019-Sep-16 09:30 328 28.3
2019-Sep-16 09:20 145 0 gusting 5 28.3
2019-Sep-16 09:14 217 27.8
2019-Sep-16 09:00 120 1 gusting 8 27.8
2019-Sep-16 08:44 115 0 gusting 10 27.2
2019-Sep-16 08:40 172 0 gusting 10 26.7
2019-Sep-16 08:34 123 0 gusting 6 26.7
2019-Sep-16 08:24 138 0 gusting 5 26.1
2019-Sep-16 07:34 059 23.9
2019-Sep-16 06:54 062 0 gusting 5 22.2
2019-Sep-16 06:50 052 22.2
2019-Sep-16 06:39 045 3 gusting 10 21.7
2019-Sep-16 06:10 051 2 gusting 6 20.6
2019-Sep-16 06:04 042 20.6
2019-Sep-16 06:00 042 1 gusting 5 20.6
2019-Sep-16 05:54 042 20.6
2019-Sep-16 05:50 042 20.0
2019-Sep-16 05:39 042 20.0
2019-Sep-16 05:19 041 2 gusting 6 20.6
2019-Sep-16 05:14 040 20.6
2019-Sep-16 05:09 034 20.6
2019-Sep-16 05:04 046 20.6
2019-Sep-16 04:54 023 20.6
2019-Sep-16 04:50 026 20.6
2019-Sep-16 04:44 019 20.0
2019-Sep-16 04:30 056 20.6
2019-Sep-16 04:20 056 20.6
2019-Sep-16 03:44 180 19.4
2019-Sep-16 03:39 180 19.4
2019-Sep-16 03:10 018 21.1
2019-Sep-16 03:04 027 21.1
2019-Sep-16 02:44 015 20.6
2019-Sep-16 02:30 028 20.6
2019-Sep-16 02:04 044 21.1
2019-Sep-16 01:59 044 21.1
2019-Sep-16 01:54 044 0 gusting 6 21.1
2019-Sep-16 01:49 051 21.1
2019-Sep-16 01:30 041 5 gusting 13 21.1
2019-Sep-16 01:24 040 6 gusting 13 21.7
2019-Sep-16 01:10 031 1 gusting 10 21.7
2019-Sep-16 01:04 027 2 gusting 11 21.7
2019-Sep-16 00:54 021 3 gusting 10 21.7
2019-Sep-16 00:34 023 4 gusting 11 21.7
2019-Sep-16 00:24 035 21.7
2019-Sep-15 23:44 009 22.2
2019-Sep-15 23:14 334 22.2
2019-Sep-15 22:59 319 22.2
2019-Sep-15 22:39 186 22.2
2019-Sep-15 22:34 186 22.2
2019-Sep-15 22:24 186 22.2
2019-Sep-15 22:20 186 22.2
2019-Sep-15 22:14 186 22.2
2019-Sep-15 22:09 186 22.2
2019-Sep-15 21:49 186 22.2
2019-Sep-15 21:44 186 22.2
2019-Sep-15 21:39 186 22.2
2019-Sep-15 21:34 186 22.2
2019-Sep-15 20:54 186 22.2
2019-Sep-15 20:50 186 22.8
2019-Sep-15 20:34 186 22.8
2019-Sep-15 20:29 186 22.8
2019-Sep-15 20:19 186 22.8
2019-Sep-15 19:49 186 22.2
2019-Sep-15 19:44 186 22.2
2019-Sep-15 19:39 190 22.8
2019-Sep-15 19:29 316 23.9
2019-Sep-15 19:24 316 23.9
2019-Sep-15 19:14 316 24.4
2019-Sep-15 19:09 316 24.4
2019-Sep-15 18:49 316 24.4
2019-Sep-15 18:29 316 25.0
2019-Sep-15 18:19 316 25.0
2019-Sep-15 17:54 287 25.0
2019-Sep-15 17:44 287 25.6
2019-Sep-15 17:24 245 2 gusting 13 25.6
2019-Sep-15 17:09 253 1 gusting 12 26.1
2019-Sep-15 17:04 247 2 gusting 12 26.1
2019-Sep-15 16:54 236 26.7
2019-Sep-15 16:49 239 1 gusting 10 26.7
2019-Sep-15 16:39 262 1 gusting 12 26.7
2019-Sep-15 16:30 243 6 gusting 17 26.7
2019-Sep-15 16:24 236 10 gusting 17 27.2
2019-Sep-15 16:09 244 2 gusting 13 27.8
2019-Sep-15 15:49 229 11 gusting 18 27.2
2019-Sep-15 15:44 237 10 gusting 17 27.8
2019-Sep-15 15:34 261 6 gusting 21 27.8
2019-Sep-15 15:04 265 10 gusting 18 28.3
2019-Sep-15 14:54 203 7 gusting 19 28.3
2019-Sep-15 14:30 244 6 gusting 21 28.3
2019-Sep-15 14:04 241 4 gusting 13 28.9
2019-Sep-15 13:44 214 5 gusting 17 28.9
2019-Sep-15 13:19 250 10 gusting 18 28.3
2019-Sep-15 13:14 265 8 gusting 19 28.9
2019-Sep-15 12:54 268 2 gusting 17 28.9
2019-Sep-15 12:39 238 6 gusting 14 29.4
2019-Sep-15 12:24 275 3 gusting 17 28.9
2019-Sep-15 12:04 256 8 gusting 20 28.9
2019-Sep-15 11:59 243 3 gusting 13 28.9
2019-Sep-15 11:44 242 10 gusting 17 28.9
2019-Sep-15 11:34 231 3 gusting 19 28.3
2019-Sep-15 11:30 217 5 gusting 18 28.3
2019-Sep-15 11:24 261 4 gusting 19 28.3
2019-Sep-15 10:30 257 0 gusting 10 28.3
2019-Sep-15 10:14 220 1 gusting 18 28.3
2019-Sep-15 10:10 187 10 gusting 21 27.8
2019-Sep-15 09:44 198 6 gusting 19 28.3
2019-Sep-15 09:39 257 28.3
2019-Sep-15 09:34 204 6 gusting 17 27.2
2019-Sep-15 09:24 164 5 gusting 17 27.2
2019-Sep-15 08:54 052 27.2
2019-Sep-15 08:29 036 25.6
2019-Sep-15 08:24 25.6
2019-Sep-15 08:19 020 25.0
2019-Sep-15 08:09 040 2 gusting 8 24.4
2019-Sep-15 08:04 045 0 gusting 4 24.4
2019-Sep-15 07:54 046 5 gusting 11 24.4
2019-Sep-15 07:49 021 23.9
2019-Sep-15 07:44 034 6 gusting 10 23.9
2019-Sep-15 07:39 039 2 gusting 10 23.9
2019-Sep-15 07:09 045 7 gusting 13 22.2
2019-Sep-15 06:59 043 9 gusting 17 21.7
2019-Sep-15 06:54 040 11 gusting 17 21.7
2019-Sep-15 06:49 037 12 gusting 15 21.7
2019-Sep-15 06:44 031 4 gusting 13 21.7
2019-Sep-15 06:34 044 12 gusting 15 21.1
2019-Sep-15 06:24 032 6 gusting 13 21.1
2019-Sep-15 06:19 052 1 gusting 12 20.6
2019-Sep-15 05:54 058 6 gusting 10 20.0
2019-Sep-15 05:44 055 20.0
2019-Sep-15 05:34 058 20.0
2019-Sep-15 05:19 033 20.0
2019-Sep-15 04:54 028 3 gusting 11 20.0
2019-Sep-15 04:44 036 1 gusting 6 20.0
2019-Sep-15 04:30 063 19.4
2019-Sep-15 04:24 050 6 gusting 8 19.4
2019-Sep-15 03:59 059 19.4
2019-Sep-15 03:49 043 18.9
2019-Sep-15 03:44 092 18.9
2019-Sep-15 03:39 140 18.9
2019-Sep-15 03:29 149 18.9
2019-Sep-15 03:14 074 19.4
2019-Sep-15 02:39 052 3 gusting 10 20.0
2019-Sep-15 02:34 050 5 gusting 11 20.0
2019-Sep-15 02:24 055 7 gusting 13 20.0
2019-Sep-15 02:09 049 7 gusting 11 20.0
2019-Sep-15 01:59 052 10 gusting 15 20.6
2019-Sep-15 01:54 045 6 gusting 11 20.0
2019-Sep-15 01:39 047 9 gusting 11 20.6
2019-Sep-15 01:34 043 20.6
2019-Sep-15 01:30 038 20.6
2019-Sep-15 01:19 015 20.6
2019-Sep-15 01:14 344 21.1
2019-Sep-15 00:44 009 21.1
2019-Sep-15 00:39 009 21.7
2019-Sep-15 00:24 010 21.7
2019-Sep-15 00:19 010 21.7
2019-Sep-15 00:14 010 21.7
2019-Sep-15 00:09 016 21.7
2019-Sep-14 23:54 22.2
2019-Sep-14 23:49 009 22.2
2019-Sep-14 23:39 019 21.7
2019-Sep-14 22:39 013 21.7
2019-Sep-14 22:34 043 21.7
2019-Sep-14 22:24 043 21.7
2019-Sep-14 22:19 043 21.7
2019-Sep-14 22:09 043 21.7